Weather History for CAAW - February, 2014

Change the Weather History Date:

Monday, February 3, 2014

  Actual Average Record
Temperature  
Mean Temperature 32 °F -  
Max Temperature 36 °F - - ()
Min Temperature 27 °F - - ()
Degree Days  
Heating Degree Days 33    
Moisture  
Dew Point 30 °F    
Average Humidity 85    
Maximum Humidity 94    
Minimum Humidity 62    
Precipitation  
Precipitation 0.00 in - - ()
Sea Level Pressure  
Sea Level Pressure 30.09 in    
Wind  
Wind Speed 3 mph ()    
Max Wind Speed 9 mph    
Max Gust Speed -    
T = Trace of Precipitation, MM = Missing Value Source: Averaged Metar Reports

Daily Weather History Graph

Daily Weather History Graph

Search for Another Location

Airport or City:

Trip Planner

Search our weather history database for the weather conditions in past years. The results will help you decide how hot, cold, wet, or windy it might be!

Date:

Astronomy

Feb. 03, 2014 Rise Set
Actual Time 7:30 AM AST 5:25 PM AST
Civil Twilight 6:59 AM AST 5:56 PM AST
Nautical Twilight 6:24 AM AST 6:31 PM AST
Astronomical Twilight 5:50 AM AST 7:05 PM AST
Moon 9:18 AM AST (2/3) 10:25 PM AST (2/3)
Length of Visible Light 10h 56m
Length of Day
9h 55m
Waxing Crescent, 19% of the Moon is Illuminated
Feb 3
Waxing Crescent
Feb 6
First Quarter
Feb 14
Full
Feb 22
Last Quarter
Mar 1
New

Hourly Weather History & Observations

Time (AST) Temp. Windchill Dew Point Humidity Pressure Visibility Wind Dir Wind Speed Gust Speed Precip Events Conditions
12:00 AM 35.6 °F - 34.0 °F 94% 29.94 in - WNW 1.2 mph - 0.01 in   Unknown
1:00 AM 35.2 °F - 33.8 °F 94% 29.95 in - WNW 2.3 mph - N/A   Unknown
2:00 AM 35 °F - 34 °F 92% 29.96 in - WSW 3.5 mph - -  
2:00 AM 35.4 °F 32.6 °F 33.6 °F 93% 29.96 in - West 3.5 mph - N/A   Unknown
3:00 AM 35.6 °F 31.7 °F 33.4 °F 92% 29.99 in - WNW 4.6 mph - N/A   Unknown
4:00 AM 34.9 °F 32.0 °F 32.7 °F 92% 30.00 in - WNW 3.5 mph - N/A   Unknown
5:00 AM 34.0 °F - 32.0 °F 92% 30.00 in - NW 2.3 mph - N/A   Unknown
6:00 AM 34.0 °F 29.8 °F 32.0 °F 92% 30.02 in - NNW 4.6 mph - N/A   Unknown
7:00 AM 34.2 °F 29.0 °F 32.0 °F 92% 30.04 in - NW 5.8 mph - N/A   Unknown
8:00 AM 34 °F - 32 °F 88% 30.08 in - NNW 3.5 mph - -  
8:00 AM 34.2 °F - 31.8 °F 91% 30.08 in - NNW 2.3 mph - N/A   Unknown
9:00 AM 34.5 °F 30.4 °F 31.5 °F 89% 30.11 in - NNW 4.6 mph - N/A   Unknown
10:00 AM 35.4 °F - 30.6 °F 82% 30.13 in - WNW 2.3 mph - N/A   Unknown
11:00 AM 35.6 °F 30.7 °F 28.6 °F 76% 30.14 in - NNW 5.8 mph - N/A   Unknown
12:00 PM 36.0 °F 33.3 °F 29.1 °F 76% 30.13 in - NNE 3.5 mph - N/A   Unknown
1:00 PM 36.5 °F - 29.1 °F 75% 30.12 in - NE 2.3 mph - N/A   Unknown
2:00 PM 36 °F - 28 °F 62% 30.12 in - ESE 2.3 mph - -  
2:00 PM 36.5 °F - 27.7 °F 70% 30.12 in - ESE 2.3 mph - N/A   Unknown
3:00 PM 33.3 °F 27.1 °F 28.0 °F 81% 30.14 in - NE 6.9 mph - N/A   Unknown
4:00 PM 32.4 °F 25.3 °F 27.5 °F 82% 30.15 in - NE 8.1 mph - N/A   Unknown
5:00 PM 31.8 °F 27.3 °F 27.0 °F 82% 30.16 in - NNE 4.6 mph - N/A   Unknown
6:00 PM 31.1 °F 25.4 °F 26.8 °F 84% 30.17 in - NNE 5.8 mph - N/A   Unknown
7:00 PM 30.9 °F 26.2 °F 26.8 °F 85% 30.18 in - NE 4.6 mph - N/A   Unknown
8:00 PM 31 °F - 26 °F 75% 30.19 in - NNE 5.8 mph - -  
8:00 PM 30.7 °F 24.9 °F 26.1 °F 83% 30.19 in - NE 5.8 mph - N/A   Unknown
9:00 PM 30.2 °F 23.4 °F 26.2 °F 85% 30.18 in - NNE 6.9 mph - N/A   Unknown
10:00 PM 28.6 °F 20.7 °F 26.4 °F 92% 30.17 in - NNE 8.1 mph - N/A   Unknown
11:00 PM 27.7 °F 18.8 °F 25.2 °F 90% 30.17 in - NNE 9.2 mph - N/A   Unknown